[[{"header":{"parameterUnit":"m.s-1","parameterCategory":1,"la1":30.2991,"la2":30.254,"lo1":-89.0895,"lo2":-89.0444,"dy":0.0017,"dx":0.0017,"nx":28,"ny":28,"refTime":"2024-12-15T09:00:00:Z","depth":0,"parameterNumber":2,"parameterNumberName":"U-component_of_WINDS"},"data":[0,0,0,0,0,0,0,0,0,0,0,0,0,0,0,0,0,0,0,0,0,0,0,0,0,0,0,0,0,0,0,0,0,0,0,0,0,0,0,0,0,0,0,0,0,0,0,0,0,0,0,0,0,0,0,0,0,0,-4.7102,-4.7102,0,-4.7186,-4.7187,-4.7188,-4.712,-4.7117,-4.7114,-4.7111,-4.7199,-4.7204,-4.7209,0,0,0,0,0,0,0,0,0,0,0,0,0,-4.6883,-4.6888,-4.7101,-4.7103,-4.7104,-4.7186,-4.7187,-4.7188,-4.712,-4.7117,-4.7113,-4.711,-4.7197,-4.7203,-4.7209,0,0,0,0,0,0,0,0,0,0,0,0,0,-4.6974,-4.6889,-4.7101,-4.708,-4.7079,-4.7186,-4.7187,-4.7188,-4.7121,-4.7117,-4.7112,-4.7108,-4.7195,-4.7203,-4.721,-4.7343,0,0,-4.7233,-4.7237,0,0,0,0,0,0,0,0,-4.6969,-4.6982,-4.7082,-4.7081,-4.708,-4.7138,-4.7142,-4.7241,-4.7122,-4.7105,-4.7111,-4.7106,-4.7182,-4.7191,-4.7216,-4.7348,-4.7351,-4.7234,-4.7239,-4.7242,-4.7244,0,0,0,0,0,0,0,-4.6963,-4.6978,-4.7135,-4.7083,-4.7082,-4.7066,-4.7074,-4.716,-4.7167,-4.7106,-4.7101,-4.7112,-4.7181,-4.7209,-4.7218,-4.7353,-4.7234,-4.724,-4.7245,-4.7248,-4.7599,-4.7604,0,0,0,0,0,0,-4.6958,-4.6973,-4.7132,-4.7137,-4.7013,-4.7074,-4.7083,-4.7124,-4.7166,-4.7168,-4.7116,-4.7109,-4.7198,-4.7209,-4.722,-4.738,-4.7242,-4.7249,-4.7253,-4.7594,-4.76,-4.7605,0,0,0,0,0,0,-4.6954,-4.6973,-4.7129,-4.7054,-4.7073,-4.7082,-4.7129,-4.7128,-4.7155,-4.7173,-4.7174,-4.7143,-4.7195,-4.721,-4.7314,-4.7382,-4.7252,-4.7259,-4.7589,-4.7596,-4.7603,-4.7699,0,0,0,0,0,0,-4.6948,-4.6972,-4.7022,-4.7056,-4.7077,-4.722,-4.7133,-4.7133,-4.7169,-4.716,-4.7199,-4.7201,-4.7193,-4.7303,-4.7321,-4.739,-4.7265,-4.7583,-4.7592,-4.7601,-4.769,-4.7709,-4.7725,0,0,0,0,0,-4.694,-4.7046,-4.7025,-4.7045,-4.714,-4.7224,-4.7236,-4.7224,-4.7174,-4.7225,-4.7237,-4.72,-4.7372,-4.7314,-4.7334,-4.7406,-4.7578,-4.7589,-4.76,-4.7682,-4.7705,-4.7724,0,0,0,0,0,0,-4.7019,-4.705,-4.7027,-4.7146,-4.7183,-4.7212,-4.7276,-4.7249,-4.7301,-4.7291,-4.7274,-4.7284,-4.7393,-4.741,-4.7345,-4.7538,-4.7467,-4.7482,-4.7523,-4.7545,-4.7562,-4.7555,-4.7271,0,0,0,0,0,-4.7051,-4.7117,-4.7139,-4.7243,-4.7262,-4.7266,-4.7303,-4.729,-4.7328,-4.7343,-4.7362,-4.7401,-4.7464,-4.7505,-4.7564,-4.7692,-4.77,-4.7752,-4.777,-4.7784,-4.7797,-4.7867,-4.7891,-4.7641,-4.7641,-4.7641,0,0,-4.7116,-4.7141,-4.7183,-4.7259,-4.7286,-4.7355,-4.728,-4.7356,-4.7407,-4.7355,-4.7454,-4.747,-4.7512,-4.7629,-4.7681,-4.7646,-4.7868,-4.7798,-4.7809,-4.7814,-4.7881,-4.7905,-4.7926,-4.7648,-4.7647,-4.7646,0,0,-4.727,-4.7295,-4.7384,-4.7414,-4.7456,-4.7458,-4.748,-4.7514,-4.7522,-4.7622,-4.7585,-4.7646,-4.7754,-4.7785,-4.7816,-4.7985,-4.7953,-4.8004,-4.8095,-4.8164,-4.8184,-4.8201,-4.8262,-4.8284,-4.8018,-4.8018,-4.8018,0,-4.7346,-4.7448,-4.7433,-4.7513,-4.7547,-4.7504,-4.7595,-4.7624,-4.7684,-4.7709,-4.7669,-4.7805,-4.783,-4.7954,-4.7996,-4.8022,-4.8046,-4.7999,-4.8182,-4.8199,-4.8215,-4.8273,-4.8296,-4.8024,-4.8023,-4.8023,-4.8022,0,-4.7539,-4.761,-4.7677,-4.7736,-4.7779,-4.7863,-4.7863,-4.7908,-4.7893,-4.79,-4.8002,-4.8031,-4.8096,-4.8124,-4.811,-4.8248,-4.8225,-4.8184,-4.8112,-4.8245,-4.8299,-4.8321,-4.8032,-4.803,-4.8028,-4.8027,0,0,-4.7743,-4.7794,-4.7819,-4.7846,-4.7891,-4.7946,-4.8029,-4.8092,-4.8131,-4.8175,-4.8244,-4.8338,-4.8301,-4.8336,-4.8325,-4.8386,-4.8518,-4.8337,-4.8338,-4.837,-4.8672,-4.8702,-4.8728,-4.8498,-4.8502,-4.8506,-4.8669,0,-4.7898,-4.8043,-4.8034,-4.817,-4.8236,-4.8198,-4.827,-4.8306,-4.8316,-4.8374,-4.8385,-4.8451,-4.8397,-4.8418,-4.8476,-4.849,-4.8579,-4.8478,-4.8563,-4.8567,-4.8553,-4.8756,-4.8787,-4.8939,-4.869,-4.8693,-4.8696,0,-4.8099,-4.8149,-4.8292,-4.8329,-4.8356,-4.8422,-4.8479,-4.8535,-4.8576,-4.8579,-4.8619,-4.8599,-4.8684,-4.8611,-4.8729,-4.8661,-4.8696,-4.8708,-4.8714,-4.872,-4.8638,-4.8768,-4.8988,-4.901,-4.8729,-4.8726,-4.8724,0,-4.8233,-4.8337,-4.8436,-4.846,-4.8505,-4.8552,-4.8573,-4.861,-4.8649,-4.87,-4.8725,-4.8786,-4.8819,-4.8866,-4.8864,-4.8811,-4.8984,-4.891,-4.8989,-4.8989,-4.9025,-4.9023,-4.9254,-4.905,-4.9049,-4.9049,-4.9048,0,-4.8407,-4.8496,-4.8497,-4.8558,-4.8657,-4.8647,-4.8745,-4.8761,-4.8795,-4.8859,-4.883,-4.889,-4.8883,-4.8945,-4.8944,-4.9042,-4.9057,-4.9062,-4.9061,-4.9065,-4.9064,-4.9086,-4.9075,-4.9055,-4.9053,-4.9052,-4.9051,0,-4.8572,-4.8577,-4.8683,-4.8717,-4.8728,-4.88,-4.8829,-4.8888,-4.8896,-4.8977,-4.8996,-4.9008,-4.908,-4.9082,-4.9164,-4.9163,-4.9283,-4.927,-4.9269,-4.9266,-4.9344,-4.9337,-4.9597,-4.963,-4.9405,-4.9407,-4.9409,0,-4.8682,-4.875,-4.8793,-4.8834,-4.8858,-4.8924,-4.8964,-4.8957,-4.9,-4.9053,-4.9105,-4.9174,-4.9228,-4.9344,-4.9361,-4.9424,-4.9412,-4.9499,-4.9421,-4.9423,-4.9413,-4.9409,-4.9416,-4.9514,-4.9516,-4.9518,-4.952,0,-4.8877,-4.8877,-4.8935,-4.8996,-4.9045,-4.9092,-4.9135,-4.9171,-4.917,-4.922,-4.9292,-4.9335,-4.9419,-4.9488,-4.955,-4.9572,-4.9547,-4.9545,-4.9566,-4.957,-4.9566,-4.9569,-4.931,-4.9538,-4.9536,-4.9535,-4.9534,-4.9533,-4.9018,-4.9077,-4.9116,-4.9183,-4.9216,-4.9258,-4.9315,-4.9331,-4.9391,-4.9459,-4.9452,-4.9533,-4.9574,-4.9654,-4.9682,-4.9746,-4.9716,-4.9747,-4.9755,-4.9762,-4.9771,-4.9558,-4.9758,-4.9757,-4.9757,-4.9756,-4.9756,0,-4.9211,-4.9235,-4.9297,-4.9359,-4.9413,-4.9385,-4.9432,-4.9479,-4.955,-4.9591,-4.9645,-4.973,-4.9797,-4.9821,-4.9886,-4.9933,-4.9923,-4.9951,-4.9946,-4.9952,-4.9794,-4.9768,-4.9958,-4.9958,-4.9958,-4.9958,-4.9958,-4.9958,-4.9317,-4.9415,-4.942,-4.9535,-4.9559,-4.9638,-4.9667,-4.9707,-4.9739,-4.9835,-4.9891,-4.9906,-4.994,-5.0008,-5.0069,-5.0074,-5.01,-5.0132,-5.0133,-4.9984,-4.9963,-4.9944,-4.992,-5.0138,-5.0138,-5.0285,-5.0287,-5.0288]},{"header":{"parameterUnit":"m.s-1","parameterCategory":1,"la1":30.2991,"la2":30.254,"lo1":-89.0895,"lo2":-89.0444,"dy":0.0017,"dx":0.0017,"nx":28,"ny":28,"refTime":"2024-12-15T09:00:00:Z","depth":0,"parameterNumber":3,"parameterNumberName":"V-component_of_WINDS"},"data":[0,0,0,0,0,0,0,0,0,0,0,0,0,0,0,0,0,0,0,0,0,0,0,0,0,0,0,0,0,0,0,0,0,0,0,0,0,0,0,0,0,0,0,0,0,0,0,0,0,0,0,0,0,0,0,0,0,0,0.0707,0.0708,0,0.0793,0.0794,0.0795,0.086,0.0861,0.0861,0.0862,0.095,0.0952,0.0954,0,0,0,0,0,0,0,0,0,0,0,0,0,0.0602,0.0604,0.0707,0.0708,0.071,0.0793,0.0794,0.0795,0.086,0.0861,0.0862,0.0862,0.0949,0.0952,0.0954,0,0,0,0,0,0,0,0,0,0,0,0,0,0.0664,0.0604,0.0707,0.0752,0.0757,0.0793,0.0794,0.0796,0.086,0.0861,0.0862,0.0863,0.0949,0.0951,0.0954,0.0953,0,0,0.0962,0.0963,0,0,0,0,0,0,0,0,0.066,0.0668,0.0744,0.0749,0.0754,0.0817,0.0789,0.0848,0.086,0.0821,0.0862,0.0863,0.0905,0.0911,0.0926,0.0957,0.096,0.0962,0.0964,0.0965,0.0966,0,0,0,0,0,0,0,0.0656,0.0664,0.0741,0.0745,0.0752,0.0769,0.0778,0.0801,0.0857,0.0824,0.0829,0.0838,0.0908,0.0923,0.0928,0.0962,0.0962,0.0965,0.0966,0.0967,0.0999,0.0999,0,0,0,0,0,0,0.0644,0.066,0.0739,0.0744,0.0709,0.077,0.0781,0.0796,0.0857,0.0867,0.0838,0.0841,0.0918,0.0925,0.0931,0.0936,0.0965,0.0968,0.0969,0.1,0.0999,0.0998,0,0,0,0,0,0,0.0642,0.0651,0.0735,0.0704,0.0716,0.077,0.0787,0.0797,0.0812,0.0867,0.0877,0.0842,0.0919,0.0928,0.0948,0.094,0.0969,0.0971,0.1001,0.1,0.0999,0.0943,0,0,0,0,0,0,0.0639,0.0649,0.0649,0.0703,0.0717,0.0749,0.0787,0.0798,0.0816,0.0822,0.0874,0.0883,0.092,0.0943,0.095,0.0944,0.0973,0.1002,0.1001,0.0999,0.0946,0.094,0.0935,0,0,0,0,0,0.0635,0.0629,0.0648,0.0657,0.0717,0.0748,0.0756,0.0799,0.0815,0.0816,0.0852,0.0882,0.0939,0.0945,0.0953,0.0948,0.1003,0.1001,0.0999,0.0948,0.0941,0.0936,0,0,0,0,0,0,0.0572,0.0637,0.0659,0.0671,0.0704,0.0759,0.0761,0.0789,0.0818,0.0822,0.0874,0.0885,0.09,0.0926,0.093,0.0951,0.0975,0.0975,0.0933,0.0927,0.0922,0.0916,0.0976,0,0,0,0,0,0.0559,0.0579,0.0635,0.064,0.0655,0.0705,0.072,0.075,0.0786,0.08,0.0838,0.0872,0.0898,0.0914,0.0941,0.095,0.0964,0.0951,0.0945,0.0941,0.094,0.095,0.0945,0.0993,0.0993,0.0993,0,0,0.0534,0.0572,0.0581,0.0628,0.0657,0.0677,0.0716,0.0735,0.0751,0.0803,0.0825,0.0853,0.0895,0.0911,0.0919,0.0933,0.093,0.0939,0.0935,0.0937,0.0948,0.0943,0.0939,0.0992,0.0992,0.0992,0,0,0.0498,0.0528,0.0536,0.0565,0.0609,0.0643,0.0644,0.0697,0.0718,0.074,0.0781,0.0801,0.0844,0.0873,0.0893,0.0871,0.0901,0.0878,0.0851,0.086,0.0856,0.0853,0.0847,0.0844,0.0877,0.0877,0.0877,0,0.0461,0.0492,0.0537,0.0555,0.0575,0.0624,0.0634,0.066,0.071,0.0724,0.0738,0.0796,0.0827,0.0851,0.0846,0.086,0.0865,0.0873,0.0853,0.085,0.0848,0.0843,0.084,0.0874,0.0875,0.0875,0.0875,0,0.0445,0.0466,0.0468,0.0516,0.0537,0.055,0.0599,0.0615,0.0644,0.0676,0.07,0.0739,0.0777,0.0784,0.0812,0.0813,0.082,0.0843,0.0868,0.084,0.0836,0.0834,0.087,0.0871,0.0872,0.0873,0,0,0.0371,0.0445,0.0445,0.0469,0.0522,0.054,0.0556,0.0593,0.0607,0.064,0.0657,0.0693,0.0715,0.0739,0.077,0.0777,0.076,0.08,0.0802,0.0792,0.0766,0.075,0.0747,0.078,0.078,0.078,0.0763,0,0.0344,0.0377,0.0419,0.0438,0.0459,0.0507,0.0522,0.0557,0.0588,0.0612,0.0647,0.0673,0.0699,0.0713,0.0723,0.076,0.0756,0.0762,0.0797,0.0798,0.0786,0.0744,0.0726,0.0709,0.0762,0.0762,0.0762,0,0.0317,0.0349,0.037,0.0424,0.0434,0.0447,0.0485,0.0507,0.0548,0.057,0.0597,0.0632,0.0654,0.0676,0.0708,0.0711,0.0728,0.0749,0.0749,0.0755,0.0778,0.075,0.0704,0.0702,0.0759,0.0759,0.076,0,0.0263,0.0311,0.0331,0.0349,0.0412,0.042,0.0446,0.0489,0.0509,0.0542,0.0557,0.0592,0.0612,0.0639,0.0683,0.0695,0.0711,0.0736,0.0731,0.073,0.0733,0.0732,0.069,0.0742,0.0742,0.0742,0.0742,0,0.023,0.0241,0.0308,0.032,0.0335,0.0384,0.0398,0.0429,0.0466,0.0486,0.0529,0.0547,0.0604,0.0629,0.0663,0.0686,0.0694,0.0713,0.0723,0.071,0.0708,0.0723,0.0726,0.0741,0.0741,0.0741,0.0741,0,0.0172,0.0217,0.0242,0.03,0.0314,0.0323,0.0373,0.0387,0.0422,0.0446,0.0455,0.0509,0.0541,0.0588,0.0633,0.0657,0.0675,0.0689,0.0661,0.0666,0.066,0.066,0.0627,0.0626,0.0676,0.0675,0.0675,0,0.0148,0.0158,0.0218,0.0234,0.026,0.0285,0.0307,0.0356,0.0377,0.0426,0.0435,0.047,0.0501,0.055,0.0594,0.063,0.0646,0.0632,0.0652,0.064,0.0648,0.0647,0.065,0.0627,0.0627,0.0626,0.0625,0,0.0102,0.0124,0.0153,0.019,0.0215,0.0246,0.028,0.0291,0.0349,0.037,0.0403,0.0427,0.0475,0.051,0.0552,0.0581,0.0613,0.0619,0.062,0.0608,0.0592,0.0603,0.0649,0.062,0.062,0.0621,0.0621,0.0621,0.0062,0.0074,0.0118,0.015,0.0181,0.0212,0.0229,0.0266,0.0295,0.0337,0.0365,0.0398,0.0441,0.0501,0.0529,0.0556,0.0569,0.057,0.0571,0.057,0.0567,0.0587,0.0563,0.0564,0.0564,0.0564,0.0564,0,0.002,0.0051,0.0079,0.0126,0.0151,0.0179,0.0219,0.0238,0.0266,0.0304,0.0334,0.0374,0.0409,0.0456,0.0495,0.0508,0.0524,0.0516,0.0517,0.0523,0.0552,0.0548,0.0503,0.0503,0.0503,0.0503,0.0503,0.0503,0.0001,0.0023,0.0051,0.009,0.0122,0.0154,0.0175,0.0204,0.0235,0.0277,0.0307,0.0338,0.038,0.0423,0.0457,0.047,0.0483,0.0471,0.0489,0.0515,0.0521,0.0526,0.0523,0.0473,0.0473,0.0459,0.0459,0.0459]}]]